This demonstration page uses our WeatherBlox Daily Observations layout. Learn more.

Left ArrowRight Arrow

Hourly Observations for June 5, 2017

Temp ( °F °C ) Dew Point ( °F °C ) Humidity (%) Winds ( mph kmh ) Pressure ( in mb ) Visibility ( mi km ) Precip ( " mm )
12:15 am 00:15 Clear 68 19.8 55 12.5 63 63 Calm 29.83 1010 10 16.0934 0 0
12:35 am 00:35 Clear 68 20 54 12.2 61 61 W 3 6 29.83 1010 10 16.0934 0 0
12:55 am 00:55 Clear 67 19.5 54 12.3 63 63 W 3 6 29.83 1010 10 16.0934 0 0
1:15 am 01:15 Clear 69 20.4 55 13 63 63 Calm 29.83 1010 10 16.0934 0 0
1:35 am 01:35 Clear 67 19.6 56 13.1 66 66 Calm 29.83 1010 10 16.0934 0 0
1:55 am 01:55 Clear 68 19.8 55 13 65 65 W 5 7 29.83 1010 10 16.0934 0 0
2:15 am 02:15 Clear 68 20.1 55 13 64 64 W 3 6 29.83 1010 10 16.0934 0 0
2:35 am 02:35 Clear 67 19.6 56 13.1 66 66 WSW 3 6 29.83 1010 10 16.0934 0 0
2:55 am 02:55 Clear 68 20.2 55 12.9 63 63 Calm 29.83 1010 10 16.0934 0 0
3:15 am 03:15 Clear 67 19.7 55 13 65 65 Calm 29.83 1010 10 16.0934 0 0
3:35 am 03:35 Clear 67 19.2 55 12.7 66 66 WSW 3 6 29.83 1010 10 16.0934 0 0
3:55 am 03:55 Hazy 64 17.6 55 13 75 75 Calm 29.85 1011 2.5 4.02335 0 0
4:15 am 04:15 Clear 67 19.2 55 12.7 66 66 Calm 29.83 1010 10 16.0934 0 0
4:35 am 04:35 Clear 67 19.2 55 12.5 65 65 W 6 9 29.83 1010 10 16.0934 0 0
4:55 am 04:55 Clear 66 18.9 55 12.7 67 67 W 6 9 29.83 1010 10 16.0934 0 0
5:15 am 05:15 Clear 65 18.6 55 12.5 68 68 WNW 5 7 29.83 1010 10 16.0934 0 0
5:35 am 05:35 Clear 64 17.6 55 12.6 73 73 NNW 3 6 29.85 1011 10 16.0934 0 0
5:55 am 05:55 Clear 63 17.4 55 12.5 73 73 Calm 29.85 1011 10 16.0934 0 0
6:15 am 06:15 Sunny 64 17.5 55 12.7 74 74 Calm 29.85 1011 10 16.0934 0 0
6:35 am 06:35 Sunny 63 17.2 55 12.5 74 74 Calm 29.85 1011 10 16.0934 0 0
6:55 am 06:55 Sunny 62 16.6 56 13.2 80 80 W 5 7 29.88 1012 10 16.0934 0 0
7:15 am 07:15 Sunny 65 18.5 56 13.6 73 73 Calm 29.88 1012 10 16.0934 0 0
7:35 am 07:35 Sunny 68 19.8 57 13.8 68 68 Calm 29.85 1011 10 16.0934 0 0
7:55 am 07:55 Sunny 70 20.9 57 13.9 64 64 Calm 29.85 1011 10 16.0934 0 0
8:15 am 08:15 Sunny 72 22.1 57 13.7 59 59 W 3 6 29.85 1011 10 16.0934 0 0
8:35 am 08:35 Sunny 73 23 57 14 57 57 W 5 7 29.83 1010 10 16.0934 0 0
8:55 am 08:55 Sunny 76 24.3 57 13.8 52 52 W 6 9 29.83 1010 10 16.0934 0 0
9:15 am 09:15 Sunny 77 25.1 56 13.5 49 49 WNW 6 9 29.83 1010 10 16.0934 0 0
9:35 am 09:35 Sunny 79 26.3 57 14 47 47 WNW 6 9 29.8 1009 10 16.0934 0 0
9:55 am 09:55 Sunny 81 27.2 55 12.9 41 41 N 7 11 29.8 1009 10 16.0934 0 0
10:15 am 10:15 Sunny 82 27.7 55 12.9 40 40 NNW 5 7 29.8 1009 10 16.0934 0 0
10:35 am 10:35 Sunny 82 28 55 12.5 38 38 W 5 7 29.8 1009 10 16.0934 0 0
10:55 am 10:55 Sunny 83 28.4 54 12.3 37 37 WSW 5 7 29.8 1009 10 16.0934 0 0
11:15 am 11:15 Sunny 83 28.5 51 10.5 33 33 Calm 29.8 1009 10 16.0934 0 0
11:35 am 11:35 Sunny 84 29.1 55 12.8 37 37 WSW 5 7 29.8 1009 10 16.0934 0 0
11:55 am 11:55 Sunny 84 28.8 54 12 35 35 S 5 7 29.8 1009 10 16.0934 0 0
12:15 pm 12:15 Partly Cloudy 85 29.3 53 11.8 34 34 SW 5 7 29.8 1009 10 16.0934 0 0
12:35 pm 12:35 Mostly Cloudy 86 30 54 12 33 33 WSW 3 6 29.77 1008 10 16.0934 0 0
12:55 pm 12:55 Mostly Cloudy 86 30.1 52 11.3 31 31 WNW 5 7 29.77 1008 10 16.0934 0 0
1:15 pm 13:15 Partly Cloudy 84 28.8 53 11.8 35 35 WSW 7 11 29.8 1009 10 16.0934 0 0
1:35 pm 13:35 Partly Cloudy 86 30.2 53 11.7 32 32 SSW 5 7 29.77 1008 10 16.0934 0 0
1:55 pm 13:55 Mostly Cloudy 86 30.2 52 11 30 30 NW 3 6 29.77 1008 10 16.0934 0 0
2:15 pm 14:15 Cloudy 85 29.5 53 11.5 33 33 WSW 5 7 29.8 1009 10 16.0934 0 0
2:35 pm 14:35 Cloudy 85 29.4 52 11.2 32 32 SSW 3 6 29.77 1008 10 16.0934 0 0
2:55 pm 14:55 Mostly Cloudy 88 31 54 12.2 32 32 WSW 7 11 29.74 1007 10 16.0934 0 0
3:15 pm 15:15 Cloudy 86 30 53 11.4 32 32 Calm 29.74 1007 10 16.0934 0 0
3:35 pm 15:35 Cloudy 85 29.5 52 11.1 32 32 Calm 29.77 1008 10 16.0934 0 0
3:55 pm 15:55 Mostly Cloudy 86 29.9 53 11.5 32 32 Calm 29.74 1007 10 16.0934 0 0
4:15 pm 16:15 Cloudy 86 29.8 50 10.2 30 30 Calm 29.74 1007 10 16.0934 0 0
4:35 pm 16:35 Mostly Cloudy 86 29.8 51 10.6 30 30 Calm 29.74 1007 10 16.0934 0 0
4:55 pm 16:55 Partly Cloudy 85 29.7 51 10.6 31 31 WSW 3 6 29.74 1007 10 16.0934 0 0
5:15 pm 17:15 Partly Cloudy 87 30.5 52 11 30 30 Calm 29.74 1007 10 16.0934 0 0
5:35 pm 17:35 Sunny 87 30.8 51 10.8 29 29 Calm 29.74 1007 10 16.0934 0 0
5:55 pm 17:55 Partly Cloudy 88 31.1 51 10.3 28 28 S 3 6 29.74 1007 10 16.0934 0 0
6:15 pm 18:15 Sunny 88 31.1 52 11.1 29 29 WSW 5 7 29.74 1007 10 16.0934 0 0
6:35 pm 18:35 Sunny 88 30.9 51 10.8 29 29 WSW 3 6 29.74 1007 10 16.0934 0 0
6:55 pm 18:55 Partly Cloudy 87 30.7 51 10.5 29 29 WSW 3 6 29.74 1007 10 16.0934 0 0
7:15 pm 19:15 Mostly Cloudy 86 29.9 51 10.3 30 30 W 3 6 29.74 1007 10 16.0934 0 0
7:35 pm 19:35 Mostly Cloudy 85 29.7 53 11.5 32 32 Calm 29.74 1007 10 16.0934 0 0
7:55 pm 19:55 Mostly Cloudy 87 30.4 49 9.5 27 27 SSW 6 9 29.74 1007 10 16.0934 0 0
8:15 pm 20:15 Partly Cloudy 83 28.2 54 12.3 37 37 SW 5 7 29.77 1008 10 16.0934 0 0
8:35 pm 20:35 Sunny 81 27.4 54 12.1 39 39 SW 3 6 29.77 1008 10 16.0934 0 0
8:55 pm 20:55 Sunny 80 26.6 54 12.1 41 41 SW 5 7 29.77 1008 10 16.0934 0 0
9:15 pm 21:15 Clear 79 26 54 12.2 42 42 SSW 5 7 29.77 1008 10 16.0934 0 0
9:35 pm 21:35 Clear 77 25.1 54 12.2 45 45 SW 5 7 29.83 1010 10 16.0934 0 0
9:55 pm 21:55 Clear 76 24.7 55 12.5 47 47 SW 6 9 29.83 1010 10 16.0934 0 0
10:15 pm 22:15 Clear 76 24.5 55 12.6 48 48 SW 6 9 29.83 1010 10 16.0934 0 0
10:35 pm 22:35 Clear 77 25.2 54 12.4 45 45 SW 6 9 29.83 1010 10 16.0934 0 0
10:55 pm 22:55 Mostly Cloudy 76 24.7 55 12.6 47 47 SW 6 9 29.83 1010 10 16.0934 0 0
11:15 pm 23:15 Mostly Cloudy 76 24.6 56 13.1 49 49 WSW 5 7 29.85 1011 10 16.0934 0 0
11:35 pm 23:35 Mostly Cloudy 76 24.6 55 13 49 49 WSW 5 7 29.85 1011 10 16.0934 0 0
11:55 pm 23:55 Partly Cloudy 75 23.7 56 13.5 53 53 W 3 6 29.85 1011 10 16.0934 0 0

Powered by AerisWeather